| time (UTC) | temp F | wind direction | speed MPH | gust MPH | rain 1hr in | rain 24hr in | rain mn in | humidity % | barometer mb |
| 20260502230031 | 44 | 0 | 2.0 | 8.0 | 0.02 | 0.29 | 0.29 | 96 | 1011.7 |
| 20260502225513 | 44 | 71 | 1.0 | 8.0 | 0.02 | 0.29 | 0.29 | 96 | 1011.8 |
| 20260502225015 | 44 | 79 | 4.0 | 10.0 | 0.02 | 0.29 | 0.29 | 96 | 1011.7 |
| 20260502224531 | 44 | 76 | 5.0 | 10.0 | 0.03 | 0.29 | 0.29 | 96 | 1011.6 |
| 20260502224014 | 44 | 71 | 6.0 | 9.0 | 0.03 | 0.29 | 0.29 | 96 | 1011.6 |
| 20260502223512 | 44 | 92 | 5.0 | 9.0 | 0.03 | 0.29 | 0.29 | 96 | 1011.5 |
| 20260502223036 | 44 | 78 | 4.0 | 10.0 | 0.03 | 0.29 | 0.29 | 96 | 1011.5 |
| 20260502222514 | 44 | 70 | 5.0 | 10.0 | 0.03 | 0.29 | 0.29 | 96 | 1011.5 |
| 20260502222013 | 44 | 84 | 5.0 | 9.0 | 0.03 | 0.28 | 0.28 | 96 | 1011.6 |
| 20260502221529 | 44 | 90 | 3.0 | 8.0 | 0.04 | 0.28 | 0.28 | 96 | 1011.6 |
| 20260502221014 | 44 | 63 | 4.0 | 8.0 | 0.04 | 0.28 | 0.28 | 96 | 1011.7 |
| 20260502220513 | 44 | 55 | 4.0 | 8.0 | 0.05 | 0.28 | 0.28 | 96 | 1011.6 |
| 20260502220030 | 44 | 64 | 4.0 | 8.0 | 0.05 | 0.27 | 0.27 | 96 | 1011.7 |
| 20260502215514 | 44 | 64 | 3.0 | 9.0 | 0.05 | 0.27 | 0.27 | 96 | 1011.7 |
| 20260502215012 | 44 | 64 | 3.0 | 9.0 | 0.05 | 0.27 | 0.27 | 96 | 1011.7 |
| 20260502214530 | 44 | 74 | 4.0 | 9.0 | 0.05 | 0.26 | 0.26 | 96 | 1011.7 |
| 20260502214014 | 44 | 34 | 3.0 | 9.0 | 0.05 | 0.26 | 0.26 | 96 | 1011.9 |
| 20260502213512 | 44 | 42 | 4.0 | 9.0 | 0.06 | 0.26 | 0.26 | 96 | 1011.9 |
| 20260502213029 | 44 | 46 | 2.0 | 5.0 | 0.07 | 0.26 | 0.26 | 96 | 1011.9 |
| 20260502212513 | 44 | 36 | 3.0 | 9.0 | 0.06 | 0.25 | 0.25 | 96 | 1012.0 |
| 20260502212012 | 44 | 30 | 2.0 | 9.0 | 0.07 | 0.25 | 0.25 | 96 | 1011.9 |
| 20260502211541 | 44 | 65 | 3.0 | 6.0 | 0.07 | 0.24 | 0.24 | 96 | 1011.9 |
| 20260502211013 | 44 | 40 | 1.0 | 4.0 | 0.06 | 0.23 | 0.23 | 96 | 1012.1 |
| 20260502210516 | 44 | 39 | 2.0 | 4.0 | 0.07 | 0.23 | 0.23 | 96 | 1012.1 |
| 20260502210038 | 44 | 41 | 1.0 | 4.0 | 0.06 | 0.22 | 0.22 | 95 | 1012.2 |
| 20260502205511 | 44 | 44 | 1.0 | 6.0 | 0.06 | 0.22 | 0.22 | 95 | 1012.3 |
| 20260502205014 | 44 | 0 | 2.0 | 6.0 | 0.06 | 0.21 | 0.21 | 95 | 1012.3 |
| 20260502204531 | 45 | 103 | 1.0 | 8.0 | 0.07 | 0.21 | 0.21 | 96 | 1012.2 |
| 20260502204013 | 45 | 0 | 1.0 | 8.0 | 0.08 | 0.21 | 0.21 | 95 | 1012.2 |
| 20260502203513 | 45 | 72 | 3.0 | 8.0 | 0.08 | 0.20 | 0.20 | 96 | 1012.0 |
| 20260502203031 | 45 | 0 | 1.0 | 5.0 | 0.07 | 0.19 | 0.19 | 96 | 1012.1 |
| 20260502202513 | 45 | 61 | 1.0 | 5.0 | 0.07 | 0.19 | 0.19 | 95 | 1012.2 |
| 20260502202013 | 45 | 0 | 0.0 | 5.0 | 0.06 | 0.18 | 0.18 | 95 | 1012.1 |
| 20260502201533 | 45 | 63 | 1.0 | 5.0 | 0.06 | 0.17 | 0.17 | 95 | 1012.1 |
| 20260502201014 | 45 | 51 | 1.0 | 4.0 | 0.06 | 0.17 | 0.17 | 96 | 1012.1 |
| 20260502200514 | 45 | 0 | 0.0 | 2.0 | 0.05 | 0.16 | 0.16 | 96 | 1012.2 |
| 20260502200030 | 45 | 0 | 0.0 | 3.0 | 0.05 | 0.16 | 0.16 | 96 | 1012.1 |
| 20260502195514 | 45 | 0 | 0.0 | 4.0 | 0.04 | 0.15 | 0.15 | 95 | 1012.1 |
| 20260502195013 | 44 | 5 | 1.0 | 6.0 | 0.04 | 0.15 | 0.15 | 95 | 1012.2 |
| 20260502194532 | 44 | 338 | 1.0 | 6.0 | 0.03 | 0.14 | 0.14 | 95 | 1012.2 |
| 20260502194011 | 44 | 37 | 2.0 | 6.0 | 0.02 | 0.13 | 0.13 | 95 | 1012.2 |
| 20260502193526 | 44 | 14 | 1.0 | 9.0 | 0.02 | 0.12 | 0.12 | 95 | 1012.1 |
| 20260502193032 | 44 | 11 | 1.0 | 9.0 | 0.02 | 0.12 | 0.12 | 95 | 1012.0 |
| 20260502192513 | 45 | 31 | 1.0 | 9.0 | 0.02 | 0.12 | 0.12 | 95 | 1012.1 |
| 20260502192013 | 45 | 21 | 3.0 | 10.0 | 0.03 | 0.12 | 0.12 | 95 | 1012.1 |
| 20260502191530 | 45 | 0 | 4.0 | 10.0 | 0.02 | 0.11 | 0.11 | 95 | 1012.1 |
| 20260502191014 | 45 | 40 | 4.0 | 9.0 | 0.03 | 0.11 | 0.11 | 94 | 1012.1 |
| 20260502190514 | 45 | 26 | 1.0 | 4.0 | 0.04 | 0.11 | 0.11 | 95 | 1012.2 |
| 20260502190035 | 45 | 0 | 0.0 | 4.0 | 0.06 | 0.11 | 0.11 | 95 | 1012.3 |
| 20260502185510 | 45 | 63 | 0.0 | 4.0 | 0.06 | 0.11 | 0.11 | 95 | 1012.4 |
| 20260502185012 | 45 | 31 | 2.0 | 4.0 | 0.06 | 0.11 | 0.11 | 94 | 1012.4 |
| 20260502184547 | 45 | 0 | 1.0 | 4.0 | 0.06 | 0.11 | 0.11 | 94 | 1012.6 |
| 20260502184012 | 45 | 40 | 2.0 | 7.0 | 0.06 | 0.11 | 0.11 | 94 | 1012.7 |
| 20260502183515 | 45 | 62 | 0.0 | 7.0 | 0.05 | 0.10 | 0.10 | 94 | 1012.7 |
| 20260502183047 | 45 | 28 | 2.0 | 8.0 | 0.05 | 0.10 | 0.10 | 94 | 1012.7 |
| 20260502182514 | 45 | 22 | 2.0 | 8.0 | 0.05 | 0.10 | 0.10 | 94 | 1012.7 |
| 20260502182012 | 45 | 33 | 0.0 | 5.0 | 0.04 | 0.09 | 0.09 | 93 | 1012.7 |
| 20260502181539 | 45 | 5 | 1.0 | 6.0 | 0.03 | 0.08 | 0.08 | 93 | 1012.8 |
| 20260502181014 | 45 | 0 | 1.0 | 6.0 | 0.03 | 0.08 | 0.08 | 93 | 1012.8 |
| 20260502180513 | 45 | 360 | 2.0 | 4.0 | 0.01 | 0.06 | 0.06 | 92 | 1012.8 |
| 20260502170512 | 46 | 69 | 2.0 | 8.0 | 0.00 | 0.05 | 0.05 | 91 | 1012.7 |
| 20260502164014 | 45 | 360 | 2.0 | 6.0 | 0.00 | 0.05 | 0.05 | 92 | 1012.7 |
| 20260502163517 | 45 | 360 | 2.0 | 5.0 | 0.00 | 0.05 | 0.05 | 93 | 1012.7 |
| 20260502163040 | 45 | 360 | 1.0 | 5.0 | 0.00 | 0.05 | 0.05 | 92 | 1012.8 |
| 20260502162514 | 45 | 360 | 1.0 | 6.0 | 0.00 | 0.05 | 0.05 | 92 | 1012.9 |
| 20260502162012 | 45 | 360 | 2.0 | 6.0 | 0.00 | 0.05 | 0.05 | 92 | 1013.0 |
| 20260502161532 | 45 | 360 | 2.0 | 6.0 | 0.00 | 0.05 | 0.05 | 93 | 1013.0 |
| 20260502161011 | 45 | 360 | 1.0 | 4.0 | 0.00 | 0.05 | 0.05 | 93 | 1013.0 |
| 20260502160511 | 45 | 360 | 0.0 | 5.0 | 0.00 | 0.05 | 0.05 | 93 | 1013.0 |
| 20260502152013 | 45 | 360 | 2.0 | 5.0 | 0.01 | 0.05 | 0.05 | 93 | 1013.2 |
| 20260502151537 | 44 | 360 | 2.0 | 5.0 | 0.01 | 0.05 | 0.05 | 94 | 1013.1 |
| 20260502151012 | 44 | 0 | 1.0 | 5.0 | 0.01 | 0.05 | 0.05 | 93 | 1013.2 |
| 20260502150512 | 45 | 360 | 2.0 | 5.0 | 0.01 | 0.05 | 0.05 | 94 | 1013.2 |
| 20260502130513 | 42 | 123 | 9.0 | 15.0 | 0.02 | 0.04 | 0.04 | 90 | 1013.9 |
| 20260502123514 | 42 | 67 | 8.0 | 17.0 | 0.01 | 0.02 | 0.02 | 85 | 1013.9 |
| 20260502123029 | 42 | 80 | 5.0 | 16.0 | 0.01 | 0.02 | 0.02 | 85 | 1013.8 |
| 20260502122511 | 42 | 72 | 8.0 | 16.0 | 0.01 | 0.02 | 0.02 | 85 | 1013.7 |
| 20260502122015 | 42 | 40 | 9.0 | 16.0 | 0.01 | 0.02 | 0.02 | 85 | 1013.6 |
| 20260502121533 | 42 | 75 | 8.0 | 15.0 | 0.02 | 0.02 | 0.02 | 85 | 1013.6 |
| 20260502121013 | 42 | 360 | 8.0 | 15.0 | 0.02 | 0.02 | 0.02 | 86 | 1013.4 |
| 20260502120515 | 42 | 87 | 8.0 | 15.0 | 0.02 | 0.02 | 0.02 | 87 | 1013.5 |
| 20260502115513 | 42 | 69 | 7.0 | 14.0 | 0.02 | 0.02 | 0.02 | 86 | 1013.6 |
| 20260502115016 | 42 | 79 | 6.0 | 13.0 | 0.02 | 0.02 | 0.02 | 86 | 1013.5 |
| 20260502114529 | 42 | 84 | 7.0 | 13.0 | 0.02 | 0.02 | 0.02 | 85 | 1013.6 |
| 20260502114012 | 42 | 78 | 5.0 | 11.0 | 0.02 | 0.02 | 0.02 | 85 | 1013.7 |
| 20260502113513 | 42 | 57 | 5.0 | 10.0 | 0.01 | 0.01 | 0.01 | 85 | 1013.8 |
| 20260502113029 | 42 | 84 | 4.0 | 10.0 | 0.01 | 0.01 | 0.01 | 85 | 1013.9 |
| 20260502112512 | 42 | 80 | 4.0 | 10.0 | 0.01 | 0.01 | 0.01 | 83 | 1014.0 |
| 20260502112015 | 42 | 59 | 6.0 | 10.0 | 0.01 | 0.01 | 0.01 | 82 | 1014.0 |
| 20260502111529 | 42 | 113 | 4.0 | 10.0 | 0.00 | 0.00 | 0.00 | 80 | 1014.0 |
| 20260502111011 | 43 | 51 | 3.0 | 9.0 | 0.00 | 0.00 | 0.00 | 80 | 1014.1 |
| 20260502110514 | 43 | 360 | 3.0 | 6.0 | 0.00 | 0.00 | 0.00 | 75 | 1014.1 |
| 20260502110037 | 43 | 0 | 0.0 | 6.0 | 0.00 | 0.00 | 0.00 | 76 | 1014.1 |
| 20260502105514 | 43 | 0 | 0.0 | 6.0 | 0.00 | 0.00 | 0.00 | 74 | 1014.1 |
| 20260502105011 | 43 | 0 | 0.0 | 5.0 | 0.00 | 0.00 | 0.00 | 75 | 1014.1 |
| 20260502104530 | 44 | 0 | 0.0 | 5.0 | 0.00 | 0.00 | 0.00 | 75 | 1013.9 |
| 20260502104013 | 43 | 360 | 2.0 | 9.0 | 0.00 | 0.00 | 0.00 | 72 | 1013.9 |
| 20260502103512 | 43 | 360 | 2.0 | 9.0 | 0.00 | 0.00 | 0.00 | 72 | 1013.9 |
| 20260502103035 | 43 | 360 | 5.0 | 11.0 | 0.00 | 0.00 | 0.00 | 70 | 1013.9 |
| 20260502102512 | 44 | 360 | 4.0 | 11.0 | 0.00 | 0.00 | 0.00 | 69 | 1013.9 |
| 20260502102013 | 44 | 360 | 3.0 | 12.0 | 0.00 | 0.00 | 0.00 | 68 | 1013.9 |
| 20260502101545 | 44 | 360 | 7.0 | 12.0 | 0.00 | 0.00 | 0.00 | 67 | 1013.8 |
| 20260502101011 | 44 | 360 | 6.0 | 11.0 | 0.00 | 0.00 | 0.00 | 67 | 1013.6 |
| 20260502100512 | 44 | 360 | 6.0 | 11.0 | 0.00 | 0.00 | 0.00 | 67 | 1013.6 |
| 20260502091533 | 45 | 360 | 4.0 | 12.0 | 0.00 | 0.00 | 0.00 | 62 | 1012.8 |
| 20260502091012 | 45 | 360 | 8.0 | 12.0 | 0.00 | 0.00 | 0.00 | 61 | 1012.7 |
| 20260502090512 | 45 | 360 | 6.0 | 11.0 | 0.00 | 0.00 | 0.00 | 59 | 1012.8 |
| 20260502071530 | 45 | 360 | 2.0 | 6.0 | 0.00 | 0.00 | 0.00 | 51 | 1014.3 |
| 20260502071016 | 45 | 360 | 2.0 | 6.0 | 0.00 | 0.00 | 0.00 | 51 | 1014.2 |
| 20260502070512 | 45 | 360 | 2.0 | 6.0 | 0.00 | 0.00 | 0.00 | 51 | 1014.1 |
| 20260502070050 | 45 | 360 | 3.0 | 9.0 | 0.00 | 0.00 | 0.00 | 50 | 1014.0 |
| 20260502065511 | 45 | 360 | 2.0 | 9.0 | 0.00 | 0.00 | 0.00 | 51 | 1013.9 |
| 20260502065011 | 45 | 360 | 4.0 | 9.0 | 0.00 | 0.00 | 0.00 | 51 | 1013.9 |
| 20260502064529 | 45 | 360 | 3.0 | 9.0 | 0.00 | 0.00 | 0.00 | 50 | 1013.8 |
| 20260502064013 | 45 | 360 | 5.0 | 9.0 | 0.00 | 0.00 | 0.00 | 50 | 1013.6 |
| 20260502063512 | 45 | 360 | 5.0 | 10.0 | 0.00 | 0.00 | 0.00 | 50 | 1013.5 |
| 20260502063037 | 45 | 360 | 5.0 | 10.0 | 0.00 | 0.00 | 0.00 | 50 | 1013.6 |
| 20260502062514 | 45 | 360 | 5.0 | 10.0 | 0.00 | 0.00 | 0.00 | 50 | 1013.4 |
| 20260502062013 | 45 | 360 | 6.0 | 10.0 | 0.00 | 0.00 | 0.00 | 49 | 1013.5 |
| 20260502061528 | 45 | 360 | 6.0 | 10.0 | 0.00 | 0.00 | 0.00 | 49 | 1013.4 |
| 20260502061011 | 45 | 360 | 5.0 | 11.0 | 0.00 | 0.00 | 0.00 | 49 | 1013.5 |
| 20260502060514 | 45 | 360 | 6.0 | 11.0 | 0.00 | 0.00 | 0.00 | 49 | 1013.3 |
| 20260502060030 | 46 | 360 | 6.0 | 12.0 | 0.00 | 0.00 | 0.00 | 49 | 1013.1 |
| 20260502055512 | 46 | 360 | 6.0 | 12.0 | 0.00 | 0.00 | 0.00 | 49 | 1013.2 |
| 20260502055013 | 46 | 360 | 7.0 | 12.0 | 0.00 | 0.00 | 0.00 | 49 | 1013.2 |
| 20260502054531 | 46 | 360 | 6.0 | 12.0 | 0.00 | 0.00 | 0.00 | 48 | 1013.2 |
| 20260502054014 | 46 | 360 | 7.0 | 12.0 | 0.00 | 0.00 | 0.00 | 47 | 1013.2 |
| 20260502053515 | 46 | 360 | 7.0 | 12.0 | 0.00 | 0.00 | 0.00 | 48 | 1013.2 |
| 20260502053031 | 46 | 360 | 6.0 | 11.0 | 0.00 | 0.00 | 0.00 | 47 | 1013.2 |
| 20260502052514 | 46 | 360 | 6.0 | 11.0 | 0.00 | 0.00 | 0.00 | 47 | 1013.3 |
| 20260502052018 | 46 | 360 | 6.0 | 11.0 | 0.00 | 0.00 | 0.00 | 47 | 1013.2 |
| 20260502051530 | 46 | 360 | 7.0 | 10.0 | 0.00 | 0.00 | 0.00 | 47 | 1013.2 |
| 20260502051011 | 46 | 360 | 5.0 | 10.0 | 0.00 | 0.00 | 0.00 | 49 | 1013.3 |
| 20260502050513 | 46 | 360 | 5.0 | 10.0 | 0.00 | 0.00 | 0.00 | 48 | 1013.2 |
| 20260502050033 | 46 | 360 | 5.0 | 12.0 | 0.00 | 0.00 | 0.00 | 48 | 1013.2 |
| 20260502045514 | 45 | 360 | 6.0 | 12.0 | 0.00 | 0.00 | 0.00 | 48 | 1013.1 |
| 20260502045013 | 45 | 360 | 5.0 | 10.0 | 0.00 | 0.00 | 0.00 | 51 | 1013.2 |
| 20260502044530 | 45 | 360 | 5.0 | 10.0 | 0.00 | 0.00 | 0.00 | 50 | 1013.2 |
| 20260502044013 | 45 | 360 | 5.0 | 10.0 | 0.00 | 0.00 | 0.00 | 50 | 1013.1 |
| 20260502043512 | 45 | 360 | 5.0 | 10.0 | 0.00 | 0.00 | 0.00 | 49 | 1013.2 |
| 20260502043031 | 45 | 360 | 5.0 | 10.0 | 0.00 | 0.00 | 0.00 | 48 | 1013.2 |
| 20260502042513 | 45 | 360 | 5.0 | 10.0 | 0.00 | 0.00 | 0.00 | 48 | 1013.2 |
| 20260502042012 | 46 | 360 | 4.0 | 8.0 | 0.00 | 0.00 | 0.00 | 48 | 1013.1 |
| 20260502041534 | 46 | 360 | 4.0 | 8.0 | 0.00 | 0.00 | 0.00 | 47 | 1013.1 |
| 20260502041011 | 46 | 360 | 4.0 | 9.0 | 0.00 | 0.00 | 0.00 | 48 | 1013.1 |
| 20260502040513 | 46 | 360 | 3.0 | 10.0 | 0.00 | 0.00 | 0.00 | 47 | 1013.0 |
| 20260502040030 | 46 | 360 | 4.0 | 10.0 | 0.00 | 0.00 | 0.00 | 47 | 1013.0 |
| 20260502035513 | 46 | 360 | 5.0 | 9.0 | 0.00 | 0.00 | 0.00 | 46 | 1012.9 |
| 20260502035012 | 46 | 360 | 5.0 | 9.0 | 0.00 | 0.00 | 0.00 | 46 | 1012.9 |
| 20260502034531 | 46 | 360 | 5.0 | 8.0 | 0.00 | 0.00 | 0.00 | 45 | 1012.9 |
| 20260502034014 | 46 | 360 | 4.0 | 8.0 | 0.00 | 0.00 | 0.00 | 45 | 1012.9 |
| 20260502033512 | 46 | 360 | 5.0 | 8.0 | 0.00 | 0.00 | 0.00 | 45 | 1012.9 |
| 20260502033028 | 46 | 360 | 4.0 | 9.0 | 0.00 | 0.00 | 0.00 | 45 | 1013.0 |
| 20260502032512 | 46 | 360 | 4.0 | 9.0 | 0.00 | 0.00 | 0.00 | 45 | 1013.0 |
| 20260502032011 | 46 | 360 | 5.0 | 9.0 | 0.00 | 0.00 | 0.00 | 46 | 1013.0 |
| 20260502031530 | 46 | 360 | 4.0 | 9.0 | 0.00 | 0.00 | 0.00 | 46 | 1013.0 |
| 20260502031014 | 46 | 360 | 5.0 | 8.0 | 0.00 | 0.00 | 0.00 | 45 | 1013.0 |
| 20260502030514 | 46 | 360 | 4.0 | 9.0 | 0.00 | 0.00 | 0.00 | 46 | 1013.0 |
| 20260502030030 | 47 | 360 | 5.0 | 9.0 | 0.00 | 0.00 | 0.00 | 46 | 1012.9 |
| 20260502025513 | 47 | 360 | 5.0 | 9.0 | 0.00 | 0.00 | 0.00 | 46 | 1012.8 |
| 20260502025011 | 47 | 360 | 4.0 | 9.0 | 0.00 | 0.00 | 0.00 | 45 | 1012.8 |
| 20260502024535 | 47 | 360 | 5.0 | 6.0 | 0.00 | 0.00 | 0.00 | 45 | 1012.9 |
| 20260502024012 | 47 | 360 | 4.0 | 8.0 | 0.00 | 0.00 | 0.00 | 45 | 1012.8 |
| 20260502023513 | 47 | 360 | 4.0 | 8.0 | 0.00 | 0.00 | 0.00 | 45 | 1012.9 |
| 20260502023031 | 47 | 360 | 4.0 | 8.0 | 0.00 | 0.00 | 0.00 | 45 | 1012.9 |
| 20260502022513 | 47 | 360 | 4.0 | 8.0 | 0.00 | 0.00 | 0.00 | 46 | 1012.9 |
| 20260502022013 | 47 | 360 | 4.0 | 8.0 | 0.00 | 0.00 | 0.00 | 48 | 1012.9 |
| 20260502021528 | 47 | 360 | 4.0 | 8.0 | 0.00 | 0.00 | 0.00 | 48 | 1013.0 |
| 20260502021013 | 47 | 360 | 4.0 | 8.0 | 0.00 | 0.00 | 0.00 | 46 | 1013.0 |
| 20260502020514 | 47 | 360 | 4.0 | 8.0 | 0.00 | 0.00 | 0.00 | 46 | 1013.0 |
| 20260502020037 | 47 | 360 | 4.0 | 8.0 | 0.00 | 0.00 | 0.00 | 46 | 1013.1 |
| 20260502015514 | 47 | 360 | 4.0 | 8.0 | 0.00 | 0.01 | 0.00 | 46 | 1013.1 |
| 20260502015014 | 47 | 360 | 4.0 | 8.0 | 0.00 | 0.01 | 0.00 | 47 | 1013.1 |
| 20260502014532 | 47 | 360 | 4.0 | 6.0 | 0.00 | 0.01 | 0.00 | 47 | 1013.1 |
| 20260502014018 | 47 | 360 | 4.0 | 8.0 | 0.00 | 0.01 | 0.00 | 47 | 1013.0 |
| 20260502013512 | 47 | 360 | 4.0 | 8.0 | 0.00 | 0.01 | 0.00 | 47 | 1012.9 |
| 20260502013047 | 47 | 360 | 3.0 | 6.0 | 0.00 | 0.01 | 0.00 | 48 | 1012.9 |
| 20260502012511 | 47 | 360 | 4.0 | 6.0 | 0.00 | 0.01 | 0.00 | 48 | 1013.0 |
| 20260502012011 | 47 | 360 | 3.0 | 8.0 | 0.00 | 0.01 | 0.00 | 50 | 1013.0 |
| 20260502011530 | 47 | 360 | 3.0 | 8.0 | 0.00 | 0.01 | 0.00 | 50 | 1012.9 |
| 20260502011013 | 47 | 360 | 3.0 | 6.0 | 0.00 | 0.01 | 0.00 | 50 | 1012.9 |
| 20260502010513 | 47 | 360 | 3.0 | 8.0 | 0.00 | 0.01 | 0.00 | 50 | 1012.8 |
| 20260502010031 | 48 | 360 | 3.0 | 8.0 | 0.00 | 0.01 | 0.00 | 48 | 1012.8 |
| 20260502005513 | 48 | 360 | 3.0 | 9.0 | 0.00 | 0.01 | 0.00 | 47 | 1012.7 |
| 20260502005014 | 48 | 360 | 3.0 | 9.0 | 0.00 | 0.01 | 0.00 | 47 | 1012.5 |
| 20260502004532 | 48 | 360 | 5.0 | 9.0 | 0.00 | 0.01 | 0.00 | 46 | 1012.5 |
| 20260502004014 | 48 | 360 | 5.0 | 9.0 | 0.00 | 0.01 | 0.00 | 46 | 1012.4 |
| 20260502003511 | 48 | 360 | 4.0 | 8.0 | 0.00 | 0.01 | 0.00 | 48 | 1012.3 |
| 20260502003031 | 48 | 360 | 3.0 | 9.0 | 0.00 | 0.01 | 0.00 | 45 | 1012.3 |
| 20260502002511 | 49 | 360 | 4.0 | 9.0 | 0.00 | 0.01 | 0.00 | 46 | 1012.2 |
| 20260502002013 | 49 | 9 | 4.0 | 9.0 | 0.00 | 0.01 | 0.00 | 45 | 1012.2 |
| 20260502001535 | 49 | 338 | 4.0 | 9.0 | 0.00 | 0.01 | 0.00 | 44 | 1012.2 |
| 20260502001013 | 50 | 336 | 3.0 | 9.0 | 0.00 | 0.01 | 0.00 | 43 | 1012.1 |
| 20260502000511 | 50 | 336 | 4.0 | 9.0 | 0.00 | 0.01 | 0.00 | 43 | 1012.0 |
| 20260502000031 | 50 | 336 | 3.0 | 6.0 | 0.00 | 0.01 | 0.00 | 43 | 1011.9 |
| 20260501235514 | 51 | 319 | 2.0 | 8.0 | 0.00 | 0.02 | 0.00 | 41 | 1011.8 |
| 20260501235011 | 51 | 360 | 3.0 | 9.0 | 0.00 | 0.02 | 0.00 | 41 | 1011.7 |
| 20260501234531 | 51 | 360 | 3.0 | 10.0 | 0.00 | 0.02 | 0.00 | 41 | 1011.6 |
| 20260501234011 | 52 | 360 | 3.0 | 12.0 | 0.00 | 0.02 | 0.00 | 40 | 1011.6 |
| 20260501233513 | 52 | 360 | 4.0 | 14.0 | 0.00 | 0.02 | 0.00 | 41 | 1011.6 |
| 20260501233035 | 52 | 303 | 7.0 | 14.0 | 0.00 | 0.02 | 0.00 | 39 | 1011.5 |
| 20260501232512 | 52 | 298 | 4.0 | 15.0 | 0.00 | 0.02 | 0.00 | 40 | 1011.5 |
| 20260501232013 | 53 | 308 | 7.0 | 15.0 | 0.00 | 0.02 | 0.00 | 38 | 1011.4 |
| 20260501231532 | 53 | 327 | 7.0 | 14.0 | 0.00 | 0.02 | 0.00 | 37 | 1011.3 |
| 20260501231012 | 53 | 336 | 6.0 | 17.0 | 0.00 | 0.02 | 0.00 | 37 | 1011.2 |
| 20260501230514 | 53 | 290 | 9.0 | 17.0 | 0.00 | 0.02 | 0.00 | 37 | 1011.1 |